Location: Bailleul
(50.3375°N, 2.8513°E)
Time: 20:23:20
(UTC+00:00)

COBE Rocket - Pass Details

Date: 19 April 2021
Orbit: 681 x 781 km, 97.1° (Epoch: 18 May)

Event Time Altitude Azimuth Distance (km) Brightness Sun altitude
Exits shadow 23:11:49 55° 50° (NE) 854 4.3 -27.7°
Drops below altitude 10° 23:16:13 10° 354° (N) 2,229 7.4 -27.8°
Sets 23:18:33 0° 351° (N) 3,172 8.5 -27.8°
